| time (UTC) | temp F | wind direction | speed MPH | gust MPH | rain 1hr in | rain 24hr in | rain mn in | humidity % | barometer mb |
| 20260506160814 | 57 | 346 | 5.0 | 13.0 | 0.00 | 0.00 | 0.00 | 69 | 1010.0 |
| 20260506155821 | 57 | 355 | 7.0 | 16.0 | 0.00 | 0.00 | 0.00 | 71 | 1010.1 |
| 20260506154815 | 58 | 302 | 9.0 | 17.0 | 0.00 | 0.00 | 0.00 | 71 | 1010.0 |
| 20260506153815 | 58 | 336 | 8.0 | 15.0 | 0.00 | 0.00 | 0.00 | 72 | 1010.1 |
| 20260506152810 | 57 | 350 | 7.0 | 14.0 | 0.00 | 0.00 | 0.00 | 70 | 1010.0 |
| 20260506151804 | 58 | 22 | 8.0 | 17.0 | 0.00 | 0.00 | 0.00 | 71 | 1010.1 |
| 20260506150806 | 58 | 339 | 9.0 | 16.0 | 0.00 | 0.00 | 0.00 | 70 | 1010.0 |
| 20260506145805 | 58 | 330 | 8.0 | 17.0 | 0.00 | 0.00 | 0.00 | 69 | 1010.1 |
| 20260506144810 | 58 | 330 | 10.0 | 18.0 | 0.00 | 0.00 | 0.00 | 70 | 1010.1 |
| 20260506143806 | 58 | 317 | 8.0 | 15.0 | 0.00 | 0.00 | 0.00 | 70 | 1010.0 |
| 20260506142806 | 58 | 329 | 8.0 | 15.0 | 0.00 | 0.00 | 0.00 | 69 | 1010.1 |
| 20260506141804 | 58 | 332 | 7.0 | 13.0 | 0.00 | 0.00 | 0.00 | 69 | 1010.0 |
| 20260506141027 | 59 | 34 | 7.0 | 16.0 | 0.00 | 0.00 | 0.00 | 67 | 1009.9 |
| 20260506140802 | 59 | 307 | 6.0 | 16.0 | 0.00 | 0.00 | 0.00 | 67 | 1009.9 |
| 20260506134806 | 58 | 306 | 7.0 | 15.0 | 0.00 | 0.00 | 0.00 | 67 | 1009.9 |
| 20260506133757 | 59 | 322 | 6.0 | 15.0 | 0.00 | 0.00 | 0.00 | 67 | 1009.9 |
| 20260506132759 | 58 | 355 | 7.0 | 15.0 | 0.00 | 0.00 | 0.00 | 69 | 1010.0 |
| 20260506131800 | 57 | 38 | 5.0 | 12.0 | 0.00 | 0.00 | 0.00 | 71 | 1009.9 |
| 20260506131215 | 57 | 346 | 6.0 | 13.0 | 0.00 | 0.00 | 0.00 | 74 | 1009.7 |
| 20260506130822 | 57 | 9 | 6.0 | 14.0 | 0.00 | 0.00 | 0.00 | 72 | 1009.9 |
| 20260506125816 | 57 | 5 | 7.0 | 15.0 | 0.00 | 0.00 | 0.00 | 73 | 1009.8 |
| 20260506123755 | 56 | 346 | 6.0 | 13.0 | 0.00 | 0.00 | 0.00 | 75 | 1009.6 |
| 20260506123431 | 56 | 350 | 7.0 | 15.0 | 0.00 | 0.00 | 0.00 | 76 | 1009.7 |
| 20260506122806 | 57 | 294 | 7.0 | 13.0 | 0.00 | 0.00 | 0.00 | 75 | 1009.7 |
| 20260506120802 | 56 | 355 | 6.0 | 11.0 | 0.00 | 0.00 | 0.00 | 76 | 1009.8 |
| 20260506115759 | 57 | 327 | 5.0 | 11.0 | 0.00 | 0.00 | 0.00 | 76 | 1009.7 |
| 20260506114755 | 56 | 319 | 7.0 | 15.0 | 0.00 | 0.00 | 0.00 | 76 | 1009.8 |
| 20260506113757 | 57 | 327 | 6.0 | 13.0 | 0.00 | 0.00 | 0.00 | 77 | 1009.8 |
| 20260506113128 | 56 | 339 | 7.0 | 14.0 | 0.00 | 0.00 | 0.00 | 76 | 1009.8 |
| 20260506112828 | 56 | 328 | 6.0 | 14.0 | 0.00 | 0.00 | 0.00 | 77 | 1009.7 |
| 20260506110800 | 56 | 326 | 6.0 | 16.0 | 0.00 | 0.00 | 0.00 | 77 | 1009.8 |
| 20260506105759 | 55 | 5 | 8.0 | 15.0 | 0.00 | 0.00 | 0.00 | 78 | 1009.7 |
| 20260506104754 | 55 | 318 | 7.0 | 12.0 | 0.00 | 0.00 | 0.00 | 79 | 1009.8 |
| 20260506103757 | 54 | 289 | 6.0 | 18.0 | 0.00 | 0.00 | 0.00 | 81 | 1009.7 |
| 20260506102752 | 53 | 335 | 7.0 | 16.0 | 0.00 | 0.00 | 0.00 | 82 | 1009.7 |
| 20260506101750 | 53 | 318 | 6.0 | 14.0 | 0.00 | 0.00 | 0.00 | 84 | 1009.8 |
| 20260506100751 | 52 | 332 | 5.0 | 14.0 | 0.00 | 0.00 | 0.00 | 86 | 1009.9 |
| 20260506095749 | 51 | 338 | 5.0 | 15.0 | 0.00 | 0.00 | 0.00 | 88 | 1009.9 |
| 20260506095554 | 51 | 338 | 5.0 | 15.0 | 0.00 | 0.00 | 0.00 | 88 | 1010.0 |
| 20260506093751 | 51 | 349 | 4.0 | 13.0 | 0.00 | 0.00 | 0.00 | 86 | 1009.9 |
| 20260506092749 | 51 | 28 | 6.0 | 17.0 | 0.00 | 0.00 | 0.00 | 83 | 1009.9 |
| 20260506091750 | 52 | 347 | 3.0 | 9.0 | 0.00 | 0.00 | 0.00 | 82 | 1009.7 |
| 20260506090752 | 52 | 10 | 4.0 | 13.0 | 0.00 | 0.00 | 0.00 | 81 | 1009.5 |
| 20260506085819 | 52 | 333 | 5.0 | 16.0 | 0.00 | 0.00 | 0.00 | 80 | 1009.5 |
| 20260506084748 | 52 | 44 | 5.0 | 15.0 | 0.00 | 0.00 | 0.00 | 81 | 1009.4 |
| 20260506083749 | 52 | 19 | 5.0 | 15.0 | 0.00 | 0.00 | 0.00 | 81 | 1009.3 |
| 20260506082747 | 52 | 319 | 4.0 | 13.0 | 0.00 | 0.00 | 0.00 | 81 | 1009.3 |
| 20260506081745 | 52 | 34 | 4.0 | 12.0 | 0.00 | 0.00 | 0.00 | 81 | 1009.2 |
| 20260506080747 | 52 | 327 | 6.0 | 14.0 | 0.00 | 0.00 | 0.00 | 80 | 1009.1 |
| 20260506072900 | 52 | 13 | 6.0 | 14.0 | 0.00 | 0.00 | 0.00 | 82 | 1008.9 |
| 20260506070838 | 51 | 53 | 7.0 | 15.0 | 0.00 | 0.00 | 0.00 | 82 | 1008.9 |
| 20260506061749 | 49 | 355 | 5.0 | 12.0 | 0.00 | 0.00 | 0.00 | 87 | 1008.7 |
| 20260506061640 | 49 | 330 | 4.0 | 8.0 | 0.00 | 0.00 | 0.00 | 87 | 1008.7 |
| 20260506061607 | 49 | 333 | 4.0 | 8.0 | 0.00 | 0.00 | 0.00 | 87 | 1008.6 |
| 20260506060920 | 49 | 331 | 4.0 | 10.0 | 0.00 | 0.00 | 0.00 | 87 | 1008.7 |
| 20260506050740 | 48 | 338 | 4.0 | 9.0 | 0.00 | 0.00 | 0.00 | 87 | 1008.5 |
| 20260506050231 | 47 | 345 | 4.0 | 8.0 | 0.00 | 0.00 | 0.00 | 86 | 1008.7 |
| 20260506044747 | 47 | 325 | 4.0 | 8.0 | 0.00 | 0.00 | 0.00 | 87 | 1008.5 |
| 20260506042739 | 47 | 331 | 4.0 | 7.0 | 0.00 | 0.00 | 0.00 | 86 | 1008.8 |
| 20260506041746 | 48 | 336 | 4.0 | 6.0 | 0.00 | 0.00 | 0.00 | 85 | 1008.8 |
| 20260506040743 | 48 | 350 | 3.0 | 8.0 | 0.00 | 0.00 | 0.00 | 85 | 1008.8 |
| 20260506035739 | 48 | 329 | 1.0 | 5.0 | 0.00 | 0.00 | 0.00 | 85 | 1008.8 |
| 20260506034734 | 48 | 355 | 3.0 | 9.0 | 0.00 | 0.00 | 0.00 | 86 | 1008.9 |
| 20260506033734 | 48 | 9 | 2.0 | 5.0 | 0.00 | 0.00 | 0.00 | 86 | 1008.9 |
| 20260506032852 | 47 | 5 | 1.0 | 5.0 | 0.00 | 0.00 | 0.00 | 86 | 1008.9 |
| 20260506032742 | 48 | 9 | 2.0 | 8.0 | 0.00 | 0.00 | 0.00 | 86 | 1008.9 |
| 20260506030734 | 47 | 13 | 2.0 | 9.0 | 0.00 | 0.00 | 0.00 | 86 | 1009.0 |
| 20260506025731 | 48 | 5 | 2.0 | 8.0 | 0.00 | 0.00 | 0.00 | 86 | 1009.0 |
| 20260506024730 | 48 | 22 | 2.0 | 8.0 | 0.00 | 0.00 | 0.00 | 86 | 1008.9 |
| 20260506023731 | 48 | 5 | 2.0 | 6.0 | 0.00 | 0.00 | 0.00 | 86 | 1008.9 |
| 20260506022740 | 48 | 355 | 2.0 | 10.0 | 0.00 | 0.00 | 0.00 | 86 | 1009.0 |
| 20260506022630 | 48 | 9 | 3.0 | 9.0 | 0.00 | 0.00 | 0.00 | 85 | 1009.2 |
| 20260506022558 | 48 | 5 | 3.0 | 10.0 | 0.00 | 0.00 | 0.00 | 85 | 1009.2 |
| 20260506022208 | 48 | 17 | 2.0 | 9.0 | 0.00 | 0.00 | 0.00 | 86 | 1009.2 |
| 20260506022100 | 48 | 9 | 2.0 | 5.0 | 0.00 | 0.00 | 0.00 | 85 | 1009.2 |
| 20260506022010 | 48 | 346 | 2.0 | 5.0 | 0.00 | 0.00 | 0.00 | 84 | 1009.3 |
| 20260506021732 | 48 | 5 | 2.0 | 10.0 | 0.00 | 0.00 | 0.00 | 86 | 1009.0 |
| 20260506020809 | 48 | 26 | 2.0 | 7.0 | 0.00 | 0.00 | 0.00 | 86 | 1009.0 |
| 20260506015746 | 48 | 331 | 3.0 | 8.0 | 0.00 | 0.00 | 0.00 | 86 | 1009.1 |
| 20260506014047 | 48 | 343 | 2.0 | 6.0 | 0.00 | 0.00 | 0.00 | 86 | 1009.1 |
| 20260506010753 | 48 | 33 | 3.0 | 9.0 | 0.00 | 0.00 | 0.00 | 85 | 1009.2 |
| 20260506003741 | 49 | 355 | 2.0 | 8.0 | 0.00 | 0.00 | 0.00 | 85 | 1009.3 |
| 20260506002734 | 49 | 39 | 2.0 | 6.0 | 0.00 | 0.00 | 0.00 | 85 | 1009.3 |
| 20260506001727 | 49 | 12 | 2.0 | 7.0 | 0.00 | 0.00 | 0.00 | 86 | 1009.4 |
| 20260506000729 | 49 | 0 | 3.0 | 8.0 | 0.00 | 0.00 | 0.00 | 86 | 1009.6 |
| 20260505235729 | 49 | 47 | 3.0 | 9.0 | 0.00 | 0.00 | 0.00 | 86 | 1009.5 |
| 20260505234733 | 49 | 9 | 3.0 | 8.0 | 0.00 | 0.00 | 0.00 | 87 | 1009.6 |
| 20260505233730 | 49 | 355 | 2.0 | 8.0 | 0.00 | 0.00 | 0.00 | 87 | 1009.7 |
| 20260505232727 | 49 | 13 | 3.0 | 9.0 | 0.00 | 0.00 | 0.00 | 87 | 1009.6 |
| 20260505231727 | 49 | 21 | 3.0 | 9.0 | 0.00 | 0.00 | 0.00 | 88 | 1009.7 |
| 20260505230726 | 49 | 0 | 2.0 | 9.0 | 0.00 | 0.00 | 0.00 | 88 | 1009.7 |
| 20260505230716 | 49 | 344 | 2.0 | 8.0 | 0.00 | 0.00 | 0.00 | 88 | 1009.7 |
| 20260505224733 | 49 | 331 | 2.0 | 6.0 | 0.00 | 0.00 | 0.00 | 87 | 1009.7 |
| 20260505223732 | 49 | 350 | 2.0 | 9.0 | 0.00 | 0.00 | 0.00 | 87 | 1009.7 |
| 20260505222733 | 50 | 355 | 2.0 | 6.0 | 0.00 | 0.00 | 0.00 | 87 | 1009.7 |
| 20260505221743 | 50 | 12 | 1.0 | 6.0 | 0.00 | 0.00 | 0.00 | 86 | 1009.8 |
| 20260505221726 | 50 | 355 | 2.0 | 6.0 | 0.00 | 0.00 | 0.00 | 87 | 1009.8 |
| 20260505215721 | 50 | 343 | 1.0 | 5.0 | 0.00 | 0.00 | 0.00 | 86 | 1009.7 |
| 20260505214722 | 50 | 342 | 2.0 | 6.0 | 0.00 | 0.00 | 0.00 | 85 | 1009.7 |
| 20260505213722 | 50 | 46 | 2.0 | 5.0 | 0.00 | 0.00 | 0.00 | 85 | 1009.7 |
| 20260505212726 | 51 | 0 | 2.0 | 6.0 | 0.00 | 0.00 | 0.00 | 85 | 1009.6 |
| 20260505211727 | 51 | 9 | 2.0 | 10.0 | 0.00 | 0.00 | 0.00 | 85 | 1009.6 |
| 20260505210728 | 51 | 319 | 2.0 | 8.0 | 0.00 | 0.00 | 0.00 | 85 | 1009.6 |
| 20260505205721 | 51 | 5 | 2.0 | 6.0 | 0.00 | 0.00 | 0.00 | 85 | 1009.6 |
| 20260505205113 | 51 | 336 | 2.0 | 8.0 | 0.00 | 0.00 | 0.00 | 85 | 1009.6 |
| 20260505204751 | 51 | 5 | 2.0 | 8.0 | 0.00 | 0.00 | 0.00 | 85 | 1009.6 |
| 20260505202719 | 51 | 22 | 2.0 | 11.0 | 0.00 | 0.00 | 0.00 | 84 | 1009.6 |
| 20260505201732 | 51 | 18 | 3.0 | 11.0 | 0.00 | 0.00 | 0.00 | 84 | 1009.5 |
| 20260505200721 | 51 | 28 | 4.0 | 12.0 | 0.00 | 0.00 | 0.00 | 84 | 1009.5 |
| 20260505195927 | 52 | 334 | 3.0 | 9.0 | 0.00 | 0.00 | 0.00 | 83 | 1009.3 |
| 20260505195730 | 52 | 329 | 5.0 | 12.0 | 0.00 | 0.00 | 0.00 | 83 | 1009.4 |
| 20260505193926 | 52 | 5 | 3.0 | 12.0 | 0.00 | 0.00 | 0.00 | 82 | 1009.3 |
| 20260505193724 | 52 | 329 | 3.0 | 12.0 | 0.00 | 0.00 | 0.00 | 82 | 1009.3 |
| 20260505191714 | 53 | 49 | 3.0 | 12.0 | 0.00 | 0.00 | 0.00 | 81 | 1009.2 |
| 20260505190751 | 53 | 18 | 4.0 | 12.0 | 0.00 | 0.00 | 0.00 | 81 | 1009.3 |
| 20260505185712 | 53 | 317 | 4.0 | 13.0 | 0.00 | 0.00 | 0.00 | 80 | 1009.2 |
| 20260505184711 | 54 | 5 | 4.0 | 13.0 | 0.00 | 0.00 | 0.00 | 80 | 1009.1 |
| 20260505183720 | 54 | 349 | 3.0 | 10.0 | 0.00 | 0.00 | 0.00 | 79 | 1009.2 |
| 20260505182713 | 55 | 328 | 4.0 | 11.0 | 0.00 | 0.00 | 0.00 | 79 | 1009.1 |
| 20260505181711 | 55 | 23 | 5.0 | 13.0 | 0.00 | 0.00 | 0.00 | 78 | 1009.1 |
| 20260505180721 | 55 | 5 | 4.0 | 12.0 | 0.00 | 0.00 | 0.00 | 77 | 1009.0 |
| 20260505175718 | 56 | 335 | 5.0 | 12.0 | 0.00 | 0.00 | 0.00 | 77 | 1008.9 |
| 20260505174712 | 56 | 9 | 6.0 | 14.0 | 0.00 | 0.00 | 0.00 | 77 | 1009.0 |
| 20260505173718 | 57 | 327 | 5.0 | 13.0 | 0.00 | 0.00 | 0.00 | 76 | 1008.9 |
| 20260505172719 | 57 | 5 | 5.0 | 12.0 | 0.00 | 0.00 | 0.00 | 76 | 1009.0 |
| 20260505171718 | 57 | 30 | 3.0 | 9.0 | 0.00 | 0.00 | 0.00 | 75 | 1008.9 |
| 20260505170718 | 57 | 15 | 4.0 | 12.0 | 0.00 | 0.00 | 0.00 | 75 | 1008.9 |
| 20260505165741 | 57 | 22 | 5.0 | 14.0 | 0.00 | 0.00 | 0.00 | 74 | 1008.9 |
| 20260505164714 | 58 | 0 | 5.0 | 16.0 | 0.00 | 0.00 | 0.00 | 73 | 1008.9 |
| 20260505163720 | 58 | 25 | 7.0 | 16.0 | 0.00 | 0.00 | 0.00 | 73 | 1008.8 |
| 20260505163645 | 59 | 5 | 6.0 | 18.0 | 0.00 | 0.01 | 0.00 | 73 | 1008.7 |
| 20260505162845 | 58 | 317 | 6.0 | 19.0 | 0.00 | 0.00 | 0.00 | 73 | 1008.7 |
| 20260505161737 | 58 | 335 | 6.0 | 14.0 | 0.00 | 0.00 | 0.00 | 72 | 1008.6 |